Ainsworth, NE

3:41 AM CDT on October 16, 2019 (GMT -0500)
Ainsworth Municipal

Weather History for KANW - August, 2019

Change the Weather History Date:

Sunday, August 25, 2019

  Actual Average Record
Temperature  
Mean Temperature 71 °F -  
Max Temperature 78 °F 83 °F 94 °F (2013)
Min Temperature 64 °F 59 °F 46 °F (2010)
Cooling Degree Days 6    
Growing Degree Days 21 (Base 50)    
Moisture  
Dew Point 66 °F    
Average Humidity 89    
Maximum Humidity 100    
Minimum Humidity 65    
Precipitation  
Precipitation 0.00 in - - ()
Sea Level Pressure  
Sea Level Pressure 29.84 in    
Wind  
Wind Speed 11 mph ()    
Max Wind Speed 17 mph    
Max Gust Speed 22 mph    
Visibility 9.8 miles    
Events      
Averages and records for this station are not official NWS values.
T = Trace of Precipitation, MM = Missing Value Source: Averaged Metar Reports

Daily Weather History Graph

Daily Weather History Graph

Search for Another Location

Airport or City:

Astronomy

Aug. 25, 2019 Rise Set
Actual Time 6:57 AM CDT 8:26 PM CDT
Civil Twilight 6:27 AM CDT 8:55 PM CDT
Nautical Twilight 5:52 AM CDT 9:31 PM CDT
Astronomical Twilight 5:14 AM CDT 10:08 PM CDT
Moon 1:29 AM CDT (8/25) 4:53 PM CDT (8/25)
Length of Visible Light 14h 27m
Length of Day
13h 28m
Waning Crescent, 29% of the Moon is Illuminated
Aug 25
Waning Crescent
Aug 30
New
Sep 5
First Quarter
Sep 13
Full
Sep 21
Last Quarter

Hourly Weather History & Observations

Time (CDT) Temp. Dew Point Humidity Pressure Visibility Wind Dir Wind Speed Gust Speed Precip Events Conditions
12:15 AM 66.7 °F 66.7 °F 100% 29.94 in 10.0 mi South 12.7 mph - N/A   Overcast
12:35 AM 66.6 °F 66.6 °F 100% 29.94 in 10.0 mi South 12.7 mph - N/A   Overcast
12:55 AM 66.6 °F 66.6 °F 100% 29.93 in 10.0 mi South 11.5 mph - N/A   Overcast
1:15 AM 66.4 °F 66.4 °F 100% 29.92 in 10.0 mi SSE 12.7 mph - N/A   Overcast
1:35 AM 66.6 °F 66.6 °F 100% 29.93 in 10.0 mi South 9.2 mph - N/A   Overcast
1:55 AM 66.6 °F 66.6 °F 100% 29.93 in 10.0 mi South 13.8 mph 20.7 mph N/A   Overcast
2:15 AM 66.6 °F 66.6 °F 100% 29.92 in 10.0 mi South 11.5 mph - N/A   Overcast
2:35 AM 66.4 °F 66.4 °F 100% 29.92 in 10.0 mi South 10.4 mph 16.1 mph N/A   Overcast
2:55 AM 66.2 °F 66.2 °F 100% 29.91 in 10.0 mi South 12.7 mph 17.3 mph N/A   Overcast
3:15 AM 65.7 °F 65.7 °F 100% 29.90 in 10.0 mi South 10.4 mph - N/A   Overcast
3:35 AM 64.9 °F 64.9 °F 100% 29.90 in 10.0 mi South 10.4 mph - N/A   Mostly Cloudy
3:55 AM 64.4 °F 64.4 °F 100% 29.90 in 10.0 mi South 9.2 mph - N/A   Mostly Cloudy
4:55 AM 65.3 °F 65.3 °F 100% 29.88 in 10.0 mi South 10.4 mph - N/A   Overcast
5:15 AM 64.4 °F 64.4 °F 100% 29.88 in 10.0 mi South 9.2 mph - N/A   Overcast
5:35 AM 64.0 °F 64.0 °F 100% 29.87 in 10.0 mi South 9.2 mph - N/A   Overcast
5:55 AM 64.2 °F 64.2 °F 100% 29.87 in 10.0 mi South 9.2 mph - N/A   Overcast
6:15 AM 64.8 °F 64.8 °F 100% 29.87 in 10.0 mi South 8.1 mph - N/A   Overcast
6:35 AM 65.3 °F 65.3 °F 100% 29.87 in 10.0 mi South 8.1 mph - N/A   Overcast
6:55 AM 65.3 °F 65.3 °F 100% 29.87 in 10.0 mi South 8.1 mph - N/A   Overcast
7:15 AM 65.3 °F 65.3 °F 100% 29.87 in 10.0 mi South 9.2 mph - N/A   Overcast
7:35 AM 65.3 °F 65.3 °F 100% 29.87 in 10.0 mi South 9.2 mph - N/A   Overcast
7:55 AM 64.8 °F 64.8 °F 100% 29.87 in 2.5 mi South 9.2 mph - N/A   Overcast
8:10 AM 64.4 °F 64.4 °F 100% 29.88 in 7.0 mi South 10.4 mph - N/A   Overcast
8:35 AM 64.6 °F 64.6 °F 100% 29.87 in 10.0 mi South 11.5 mph 17.3 mph N/A   Overcast
8:55 AM 64.9 °F 64.6 °F 99% 29.88 in 10.0 mi South 16.1 mph - N/A   Overcast
9:15 AM 65.5 °F 64.4 °F 96% 29.88 in 10.0 mi South 13.8 mph - N/A   Overcast
9:35 AM 66.2 °F 64.6 °F 94% 29.88 in 10.0 mi South 10.4 mph - N/A   Overcast
9:55 AM 66.2 °F 65.3 °F 97% 29.89 in 10.0 mi South 11.5 mph - N/A   Overcast
10:15 AM 65.7 °F 65.7 °F 100% 29.90 in 10.0 mi South 12.7 mph - N/A   Overcast
10:35 AM 65.8 °F 65.8 °F 100% 29.89 in 10.0 mi South 13.8 mph - N/A   Overcast
10:55 AM 66.2 °F 64.8 °F 95% 29.89 in 10.0 mi South 16.1 mph - N/A   Overcast
11:15 AM 66.7 °F 64.4 °F 92% 29.88 in 10.0 mi SSW 11.5 mph - N/A   Overcast
11:35 AM 68.0 °F 64.9 °F 90% 29.88 in 10.0 mi South 12.7 mph - N/A   Overcast
11:55 AM 69.8 °F 64.2 °F 82% 29.88 in 10.0 mi South 16.1 mph 21.9 mph N/A   Overcast
12:15 PM 70.7 °F 64.6 °F 81% 29.88 in 10.0 mi South 12.7 mph 18.4 mph N/A   Overcast
12:35 PM 71.2 °F 64.8 °F 80% 29.88 in 10.0 mi SSW 9.2 mph - N/A   Overcast
12:55 PM 72.0 °F 65.3 °F 79% 29.87 in 10.0 mi South 11.5 mph - N/A   Overcast
1:15 PM 71.6 °F 65.7 °F 81% 29.87 in 10.0 mi South 11.5 mph 16.1 mph N/A   Overcast
1:35 PM 71.8 °F 65.7 °F 81% 29.85 in 10.0 mi South 13.8 mph 18.4 mph N/A   Overcast
1:55 PM 74.3 °F 65.8 °F 75% 29.84 in 10.0 mi SSW 13.8 mph - N/A   Overcast
2:15 PM 75.6 °F 65.8 °F 72% 29.83 in 10.0 mi South 17.3 mph 21.9 mph N/A   Overcast
2:35 PM 76.8 °F 66.0 °F 69% 29.83 in 10.0 mi SSW 15.0 mph 21.9 mph N/A   Mostly Cloudy
2:55 PM 75.7 °F 66.2 °F 72% 29.83 in 10.0 mi SW 12.7 mph 18.4 mph N/A   Mostly Cloudy
3:15 PM 76.8 °F 66.2 °F 70% 29.82 in 10.0 mi South 16.1 mph 20.7 mph N/A   Overcast
3:35 PM 76.8 °F 66.0 °F 69% 29.81 in 10.0 mi SSW 15.0 mph - N/A   Overcast
3:55 PM 77.4 °F 65.5 °F 67% 29.80 in 10.0 mi SSW 15.0 mph 18.4 mph N/A   Overcast
4:15 PM 77.0 °F 66.4 °F 70% 29.80 in 10.0 mi SSW 13.8 mph 19.6 mph N/A   Mostly Cloudy
4:35 PM 77.7 °F 65.3 °F 65% 29.80 in 10.0 mi SSW 13.8 mph - N/A   Mostly Cloudy
4:55 PM 77.0 °F 65.3 °F 67% 29.79 in 10.0 mi South 12.7 mph 20.7 mph N/A   Mostly Cloudy
5:15 PM 78.1 °F 66.2 °F 67% 29.78 in 10.0 mi SSW 13.8 mph 18.4 mph N/A   Scattered Clouds
5:35 PM 78.3 °F 66.6 °F 67% 29.78 in 10.0 mi SSW 11.5 mph - N/A   Scattered Clouds
5:55 PM 77.4 °F 66.0 °F 68% 29.78 in 10.0 mi South 10.4 mph - N/A   Scattered Clouds
6:15 PM 77.9 °F 66.0 °F 67% 29.78 in 10.0 mi South 15.0 mph - N/A   Scattered Clouds
6:35 PM 77.5 °F 66.7 °F 69% 29.77 in 10.0 mi South 12.7 mph - N/A   Clear
6:55 PM 75.7 °F 64.4 °F 68% 29.77 in 10.0 mi SSW 10.4 mph - N/A   Clear
7:15 PM 74.3 °F 65.1 °F 73% 29.76 in 10.0 mi SSW 9.2 mph - N/A   Clear
7:35 PM 73.2 °F 65.5 °F 77% 29.76 in 10.0 mi South 4.6 mph - N/A   Clear
7:55 PM 73.4 °F 66.6 °F 79% 29.76 in 10.0 mi South 4.6 mph - N/A   Clear
8:15 PM 72.7 °F 68.0 °F 85% 29.76 in 10.0 mi South 3.5 mph - N/A   Clear
8:35 PM 71.6 °F 68.5 °F 90% 29.76 in 10.0 mi SSE 4.6 mph - N/A   Clear
9:15 PM 70.2 °F 70.0 °F 99% 29.76 in 10.0 mi SE 10.4 mph - N/A   Clear
9:35 PM 70.0 °F 70.0 °F 100% 29.78 in 10.0 mi SSE 9.2 mph - N/A   Clear
9:55 PM 68.9 °F 68.9 °F 100% 29.80 in 10.0 mi SSE 8.1 mph - N/A   Scattered Clouds
10:15 PM 68.5 °F 68.5 °F 100% 29.79 in 10.0 mi SSE 9.2 mph - N/A   Mostly Cloudy
10:35 PM 67.8 °F 67.8 °F 100% 29.79 in 10.0 mi SE 6.9 mph - N/A   Overcast
10:55 PM 67.1 °F 67.1 °F 100% 29.78 in 10.0 mi SE 6.9 mph - N/A   Overcast
11:15 PM 66.6 °F 66.6 °F 100% 29.76 in 10.0 mi SSE 9.2 mph - N/A   Scattered Clouds
11:35 PM 66.6 °F 66.6 °F 100% 29.75 in 10.0 mi SSE 9.2 mph - N/A   Scattered Clouds
11:55 PM 66.6 °F 66.6 °F 100% 29.76 in 10.0 mi SSE 9.2 mph - N/A   Scattered Clouds